AMQ135 LGRP-EPWR

Flight info

Callsign AMQ135
Flight time N/A
Altitude 36000
Route BANRO UG80 IMR UN618 DUGLA UY371 MARMA DCT EKI UW102 VADEN Y520 DINEN Y551 NAVOD/N0331F100 T226 SODGO/N0445F360 DCT DEGET DCT LITKU DCT BILNA/N0280F080 L617 EPOPA
Aircraft A320/M-SDE3FGHIRWY/LB1

Departure

Time N/A
Airport Rhodes International Airport "Diagoras" (LGRP)

Arrival

Time 2026-05-04 17:48
Airport Copernicus Wrocław Airport (EPWR)
Time Latitude Longitude Altitude Speed Heading
2026-05-04 16:55 46.84957 20.93574 36081 ft 400 kts 328°
2026-05-04 16:56 46.96748 20.82490 36062 ft 406 kts 328°
2026-05-04 16:57 47.03826 20.75807 36057 ft 405 kts 328°
2026-05-04 16:58 47.13285 20.66851 36059 ft 404 kts 328°
2026-05-04 17:00 47.27404 20.53430 36059 ft 404 kts 328°
2026-05-04 17:01 47.39160 20.42159 36057 ft 404 kts 328°
2026-05-04 17:02 47.48553 20.33102 36058 ft 404 kts 327°
2026-05-04 17:03 47.55565 20.26283 36057 ft 404 kts 327°
2026-05-04 17:03 47.62521 20.19525 36057 ft 404 kts 327°
2026-05-04 17:04 47.71981 20.10534 36058 ft 403 kts 328°
2026-05-04 17:05 47.81411 20.01545 36058 ft 403 kts 328°
2026-05-04 17:06 47.88456 19.94802 36058 ft 403 kts 328°
2026-05-04 17:07 47.94741 19.88764 36057 ft 403 kts 328°
2026-05-04 17:07 48.00258 19.83450 36057 ft 403 kts 328°
2026-05-04 17:08 48.07307 19.76641 36026 ft 403 kts 328°
2026-05-04 17:09 48.11987 19.72113 35988 ft 403 kts 328°
2026-05-04 17:09 48.16704 19.67559 35966 ft 403 kts 328°
2026-05-04 17:10 48.28445 19.56136 35950 ft 403 kts 328°
2026-05-04 17:11 48.33106 19.51577 35949 ft 403 kts 328°
2026-05-04 17:12 48.40162 19.44655 35949 ft 403 kts 328°
2026-05-04 17:13 48.51880 19.33100 35948 ft 403 kts 327°
2026-05-04 17:14 48.61203 19.23824 35948 ft 402 kts 327°
2026-05-04 17:15 48.68198 19.16860 35951 ft 403 kts 327°
2026-05-04 17:16 48.77513 19.07559 35952 ft 397 kts 327°
2026-05-04 17:17 48.86541 18.98503 35950 ft 385 kts 327°
2026-05-04 17:18 48.95352 18.89629 35948 ft 379 kts 328°
2026-05-04 17:19 49.04146 18.80746 35947 ft 385 kts 327°
2026-05-04 17:20 49.12848 18.71918 35948 ft 394 kts 326°
2026-05-04 17:20 49.19855 18.64792 35949 ft 395 kts 326°
2026-05-04 17:21 49.28967 18.55459 35948 ft 395 kts 326°
2026-05-04 17:22 49.33527 18.50770 35949 ft 395 kts 326°
2026-05-04 17:23 49.42983 18.42164 35948 ft 397 kts 333°
2026-05-04 17:24 49.50418 18.36722 35961 ft 397 kts 333°
2026-05-04 17:24 49.57836 18.31280 34599 ft 392 kts 333°
2026-05-04 17:25 49.60292 18.29472 33997 ft 390 kts 333°
2026-05-04 17:25 49.65151 18.25901 32676 ft 392 kts 332°
2026-05-04 17:26 49.70081 18.22275 31157 ft 397 kts 332°
2026-05-04 17:26 49.77596 18.16732 28774 ft 406 kts 332°
2026-05-04 17:27 49.82614 18.13024 27755 ft 397 kts 332°
2026-05-04 17:27 49.87535 18.09377 26735 ft 390 kts 331°
2026-05-04 17:28 49.92381 18.05830 25712 ft 385 kts 333°
2026-05-04 17:29 49.99797 18.01405 24128 ft 381 kts 336°
2026-05-04 17:29 50.07194 17.97164 22548 ft 378 kts 336°
2026-05-04 17:30 50.14525 17.92942 20964 ft 374 kts 336°
2026-05-04 17:31 50.19409 17.90124 19908 ft 371 kts 336°
2026-05-04 17:31 50.26604 17.85947 18362 ft 367 kts 336°
2026-05-04 17:32 50.31330 17.83194 17369 ft 363 kts 336°
2026-05-04 17:33 50.38256 17.78672 15836 ft 357 kts 330°
2026-05-04 17:33 50.40424 17.76819 15333 ft 355 kts 328°
2026-05-04 17:34 50.46823 17.71124 13847 ft 350 kts 328°
2026-05-04 17:34 50.48919 17.69254 13362 ft 348 kts 328°
2026-05-04 17:35 50.55184 17.63662 11925 ft 343 kts 328°
2026-05-04 17:35 50.59282 17.60000 11254 ft 331 kts 328°
2026-05-04 17:35 50.61230 17.58260 11164 ft 316 kts 328°
2026-05-04 17:36 50.63111 17.56576 11075 ft 302 kts 328°
2026-05-04 17:36 50.64881 17.54991 11010 ft 288 kts 328°
2026-05-04 17:36 50.66584 17.53463 10881 ft 278 kts 328°
2026-05-04 17:36 50.68239 17.51977 10625 ft 272 kts 328°
2026-05-04 17:37 50.69854 17.50524 10396 ft 266 kts 328°
2026-05-04 17:37 50.71432 17.49103 10154 ft 260 kts 328°
2026-05-04 17:37 50.72994 17.47695 9880 ft 256 kts 328°
2026-05-04 17:37 50.74550 17.46350 9607 ft 253 kts 336°
2026-05-04 17:38 50.76239 17.45715 9327 ft 253 kts 352°
2026-05-04 17:38 50.77996 17.45517 9061 ft 250 kts 354°
2026-05-04 17:38 50.79705 17.45354 8763 ft 248 kts 353°
2026-05-04 17:38 50.81437 17.45136 8382 ft 249 kts 352°
2026-05-04 17:39 50.84837 17.44592 7794 ft 244 kts 351°
2026-05-04 17:39 50.86524 17.44295 7546 ft 241 kts 351°
2026-05-04 17:39 50.88153 17.44003 7338 ft 235 kts 351°
2026-05-04 17:40 50.89782 17.43709 7116 ft 234 kts 351°
2026-05-04 17:40 50.91401 17.43414 6895 ft 234 kts 351°
2026-05-04 17:40 50.92957 17.42821 6653 ft 230 kts 328°
2026-05-04 17:40 50.94075 17.41123 6376 ft 225 kts 298°
2026-05-04 17:41 50.94772 17.38934 6163 ft 223 kts 294°
2026-05-04 17:41 50.95429 17.36711 5964 ft 223 kts 294°
2026-05-04 17:41 50.96130 17.34517 5771 ft 223 kts 297°
2026-05-04 17:41 50.96866 17.32351 5567 ft 221 kts 296°
2026-05-04 17:42 50.97579 17.30199 5206 ft 223 kts 296°
2026-05-04 17:42 50.98279 17.28004 4930 ft 220 kts 295°
2026-05-04 17:42 50.98942 17.25868 4719 ft 214 kts 295°
2026-05-04 17:42 50.99582 17.23769 4519 ft 209 kts 294°
2026-05-04 17:43 51.00205 17.21703 4310 ft 207 kts 294°
2026-05-04 17:43 51.00828 17.19630 4192 ft 202 kts 294°
2026-05-04 17:43 51.01426 17.17641 4303 ft 203 kts 294°
2026-05-04 17:43 51.02036 17.15616 4004 ft 203 kts 294°
2026-05-04 17:44 51.02639 17.13620 3694 ft 200 kts 294°
2026-05-04 17:44 51.03239 17.11636 3393 ft 196 kts 295°
2026-05-04 17:44 51.03811 17.09752 3115 ft 191 kts 295°
2026-05-04 17:44 51.04388 17.07851 2841 ft 187 kts 295°
2026-05-04 17:45 51.04942 17.06029 2623 ft 181 kts 295°
2026-05-04 17:45 51.05470 17.04293 2363 ft 169 kts 295°
2026-05-04 17:45 51.05964 17.02672 2131 ft 157 kts 295°
2026-05-04 17:45 51.06414 17.01197 1929 ft 141 kts 295°
2026-05-04 17:46 51.06824 16.99851 1741 ft 133 kts 295°
2026-05-04 17:46 51.07226 16.98529 1586 ft 133 kts 295°
2026-05-04 17:46 51.07632 16.97199 1417 ft 133 kts 295°
2026-05-04 17:46 51.08033 16.95891 1247 ft 133 kts 295°
2026-05-04 17:47 51.08438 16.94566 1071 ft 132 kts 295°
2026-05-04 17:47 51.08749 16.93543 932 ft 132 kts 295°
2026-05-04 17:47 51.08836 16.93259 893 ft 131 kts 296°
2026-05-04 17:47 51.09264 16.91869 714 ft 137 kts 296°
2026-05-04 17:48 51.09664 16.90549 507 ft 131 kts 296°
2026-05-04 17:48 51.10064 16.89243 402 ft 128 kts 296°
2026-05-04 17:48 51.10398 16.88175 401 ft 83 kts 296°
2026-05-04 17:48 51.10574 16.87590 404 ft 34 kts 297°
2026-05-04 17:49 51.10664 16.87289 406 ft 28 kts 296°
2026-05-04 17:49 51.10759 16.87269 404 ft 15 kts 29°
2026-05-04 17:49 51.10858 16.87353 402 ft 16 kts 27°
2026-05-04 17:49 51.10950 16.87459 401 ft 16 kts 89°
2026-05-04 17:50 51.10900 16.87629 401 ft 16 kts 116°
2026-05-04 17:50 51.10891 16.87751 399 ft 11 kts 28°
2026-05-04 17:50 51.10916 16.87771 399 ft 0 kts 54°
2026-05-04 17:50 51.10921 16.87776 399 ft 2 kts 24°
2026-05-04 17:51 51.10930 16.87780 399 ft 0 kts 21°